TimeMDT,TemperatureF,Dew PointF,Humidity,Sea Level PressureIn,VisibilityMPH,Wind Direction,Wind SpeedMPH,Gust SpeedMPH,PrecipitationIn,Events,Conditions,WindDirDegrees,DateUTC
12:51 AM,62.1,10.0,13,29.74,10.0,West,6.9,-,N/A,,Clear,270,2013-05-09 06:51:00
1:51 AM,57.0,14.0,18,29.74,10.0,NNE,9.2,-,N/A,,Clear,30,2013-05-09 07:51:00
2:51 AM,60.1,12.9,16,29.75,10.0,NNW,6.9,-,N/A,,Clear,340,2013-05-09 08:51:00
3:51 AM,55.9,14.0,19,29.77,10.0,North,8.1,-,N/A,,Clear,350,2013-05-09 09:51:00
4:51 AM,59.0,17.1,20,29.78,10.0,North,13.8,-,N/A,,Clear,350,2013-05-09 10:51:00
5:51 AM,53.1,25.0,34,29.82,10.0,North,12.7,-,N/A,,Clear,10,2013-05-09 11:51:00
6:51 AM,53.1,30.0,41,29.86,10.0,North,10.4,-,N/A,,Clear,350,2013-05-09 12:51:00
7:51 AM,57.9,36.0,44,29.86,10.0,North,12.7,-,N/A,,Clear,350,2013-05-09 13:51:00
8:51 AM,62.1,37.9,41,29.87,10.0,North,12.7,-,N/A,,Clear,360,2013-05-09 14:51:00
9:51 AM,66.9,39.0,36,29.86,10.0,North,15.0,-,N/A,,Clear,10,2013-05-09 15:51:00
10:51 AM,70.0,37.0,30,29.87,10.0,NNE,11.5,-,N/A,,Clear,20,2013-05-09 16:51:00
11:51 AM,73.9,36.0,25,29.85,10.0,North,13.8,-,N/A,,Clear,350,2013-05-09 17:51:00
12:51 PM,75.9,30.9,19,29.83,10.0,North,9.2,18.4,N/A,,Clear,10,2013-05-09 18:51:00
1:51 PM,77.0,28.9,17,29.82,10.0,Variable,3.5,-,N/A,,Clear,0,2013-05-09 19:51:00
2:51 PM,79.0,23.0,13,29.78,10.0,WSW,8.1,-,N/A,,Clear,240,2013-05-09 20:51:00
3:51 PM,79.0,26.1,14,29.78,10.0,SSW,8.1,-,N/A,,Clear,200,2013-05-09 21:51:00
4:51 PM,80.1,26.1,14,29.75,10.0,NNE,4.6,-,N/A,,Scattered Clouds,30,2013-05-09 22:51:00
5:51 PM,81.0,26.1,13,29.76,10.0,NE,8.1,-,N/A,,Clear,40,2013-05-09 23:51:00
6:51 PM,79.0,26.1,14,29.76,10.0,NE,4.6,-,N/A,,Clear,40,2013-05-10 00:51:00
8:51 PM,71.1,28.9,21,29.80,10.0,NE,3.5,-,N/A,,Clear,50,2013-05-10 02:51:00
9:51 PM,69.1,27.0,21,29.82,10.0,NW,3.5,-,N/A,,Clear,310,2013-05-10 03:51:00
10:51 PM,64.9,33.1,31,29.85,10.0,NNE,11.5,-,N/A,,Clear,30,2013-05-10 04:51:00
11:51 PM,63.0,41.0,45,29.90,7.0,NNE,23.0,29.9,N/A,,Partly Cloudy,30,2013-05-10 05:51:00